Regional Weather Roundup
Issued by NWS

Home | Current Version | Previous Version | Graphics & Text | Print | Product List | Glossary On
Versions: 1 2 3 4 5 6 7 8 9 10 11 12 13 14 15 16 17 18 19 20 21 22 23 24 25 26 27 28 29 30 31 32 33 34 35 36 37 38 39 40 41 42 43 44 45 46 47
000
ASUS45 KSLC 101010
RWRUT

UTAH REGIONAL WEATHER ROUNDUP
NATIONAL WEATHER SERVICE SALT LAKE CITY UT
400 AM MDT THU JUL 10 2014

UTZ001>011-023>025-101100-

NORTHERN UTAH

CITY           SKY/WX    TMP DP  RH WIND       PRES   REMARKS
HILL AFB       CLOUDY    73  53  50 E5        30.01F
LOGAN          MOCLDY    73  54  51 SE5       29.99S
OGDEN          CLOUDY    74  53  48 SE5       29.99S
PROVO AIRPORT  MOCLDY    68  54  60 S6        30.04S
SALT LAKE CITY LGT RAIN  71  61  70 SE10      29.98F
VERNAL         MOCLDY    67  52  58 CALM      30.07F
WENDOVER       MOCLDY    79  48  34 NW8       29.97F
HEBER CITY     MOCLDY    61  54  77 CALM      30.10F
WEST JORDAN    CLOUDY    72  64  78 SE6       30.03

$$

UTZ012>022-026-027-101100-

SOUTHERN UTAH

CITY           SKY/WX    TMP DP  RH WIND       PRES   REMARKS
BRYCE CANYON   CLOUDY    57  49  74 CALM      30.27F
CEDAR CITY     MOCLDY    68  50  52 SE7       30.10F
MILFORD        PTCLDY    71  52  50 SW10      30.05S
MOAB/CYNLANDS  MOCLDY    72  58  61 CALM      30.05S
PRICE          CLOUDY    65  57  75 NE6       30.15F
ST GEORGE      NOT AVBL

$$

REGIONAL REPORTS     COLORADO/ARIZONA

CITY           SKY/WX    TMP DP  RH WIND       PRES   REMARKS
CRAIG, CO      PTCLDY    49  48  97 SE5       30.17F
GRAND JUNCTION PTCLDY    69  49  48 E6        30.08S
RIFLE          PTCLDY    61  46  57 CALM      30.14S
MONTROSE       MOCLDY    65  45  48 SE6       30.18S
CORTEZ         CLOUDY    63  52  67 E5        30.20F
PAGE, AZ       PTCLDY    77  50  38 SE5       30.04S
GRAND CANYON   CLOUDY    57  55  93 NE5       30.23F
KINGMAN        CLOUDY    76  62  62 SE14      30.00R
FLAGSTAFF      PTCLDY    55  51  86 CALM      30.26F

$$

REGIONAL REPORTS    NEVADA/IDAHO/WYOMING

CITY           SKY/WX    TMP DP  RH WIND       PRES   REMARKS
LAS VEGAS, NV  MOCLDY    86  60  41 S8        29.81F
ELY            CLOUDY    59  53  80 S7        30.15F
ELKO           PTCLDY    61  55  81 E3        30.07S
POCATELLO, ID  CLEAR     68  50  52 S5        29.98F
BURLEY         CLOUDY    69  52  54 SW7       29.97S
EVANSTON, WY   MOCLDY    63  48  58 W5        30.19S
ROCK SPRINGS   PTCLDY    67  42  40 SW12      30.14S

$$


USA.gov is the U.S. government's official web portal to all federal, state and local government web resources and services.